Starlink 31862

operational
NORAD ID: 59786 Int'l Des: 2024-093 Owner: SPXS Country: US Constellation: starlink
LEOCIRCULAR

关于 Starlink 31862

正在加载描述...

实时位置

正在加载3D地球...

即将过境

高度历史

Altitude vs Time

uPlot chart will show altitude changes over time

两行轨道根数

1 59786U 24093E 25307.97998704 -.00000380 00000-0 -42861-5 0 9992
2 59786 42.9996 198.5038 0001256 275.1894 84.8814 15.27588885 83472
Epoch: Nov 3, 2025 • Age: 10 hours

当前状态

高度 483.9 km
速度 7.63 km/s
星下点 28.56°N, 50.94°E
发射日期 May 18, 2024
运行时间 1.4 years
类型 internet

技术详情

分类 Payload
质量 730.00 kg
干质量 700.00 kg
总质量 730.00 kg
长度 0.30 m
直径 4.10 m
跨度 29.00 m
形状 Box + pan
制造商 SPXS
平台类型 Starlink V2M
阶段状态 In Orbit
所有者/国家 SPXS/US

大型星座

Loading constellations...